QPF
0.00 0.01 0.01 0.00 0.01 0.01 0.02 0.03 0.04 0.03 0.03 0.02 0.03 0.04 0.04 0.04 0.06 0.06 0.04 0.04 0.04 0.04 0.04 0.04 0.07 0.07 0.04 0.03 0.02 0.02 0.03 0.04 0.06 0.06 0.06 0.06 0.07 0.08
0.01 0.01 0.01 0.01 0.01 0.01 0.02 0.02 0.03 0.03 0.03 0.03 0.03 0.04 0.04 0.03 0.06 0.06 0.05 0.05 0.05 0.05 0.05 0.03 0.04 0.06 0.06 0.04 0.04 0.03 0.03 0.02 0.03 0.05 0.05 0.05 0.05 0.05
0.01 0.01 0.01 0.01 0.01 0.01 0.01 0.02 0.03 0.02 0.02 0.03 0.03 0.03 0.04 0.05 0.05 0.04 0.04 0.03 0.03 0.03 0.02 0.02 0.02 0.03 0.05 0.05 0.05 0.04 0.04 0.03 0.03 0.03 0.04 0.05 0.05 0.04
0.02 0.02 0.02 0.02 0.02 0.02 0.01 0.02 0.02 0.03 0.03 0.03 0.03 0.02 0.03 0.03 0.04 0.03 0.03 0.02 0.02 0.02 0.02 0.02 0.02 0.03 0.04 0.05 0.07 0.06 0.04 0.03 0.03 0.02 0.02 0.02 0.03 0.04
0.02 0.01 0.02 0.03 0.02 0.02 0.02 0.01 0.02 0.03 0.04 0.04 0.03 0.02 0.02 0.03 0.03 0.03 0.03 0.02 0.03 0.03 0.02 0.03 0.04 0.04 0.03 0.04 0.06 0.07 0.06 0.04 0.04 0.03 0.02 0.01 0.01 0.01
0.01 0.01 0.01 0.02 0.02 0.02 0.02 0.02 0.02 0.03 0.03 0.04 0.03 0.02 0.03 0.03 0.03 0.02 0.02 0.02 0.02 0.02 0.03 0.02 0.02 0.03 0.03 0.03 0.04 0.05 0.05 0.04 0.04 0.04 0.02 0.01 0.01 0.01
0.01 0.01 0.01 0.02 0.03 0.03 0.03 0.03 0.04 0.04 0.04 0.04 0.03 0.02 0.01 0.02 0.03 0.02 0.03 0.02 0.02 0.01 0.02 0.01 0.01 0.02 0.03 0.03 0.03 0.04 0.04 0.04 0.03 0.03 0.04 0.03 0.01 0.00
0.01 0.01 0.02 0.02 0.03 0.03 0.04 0.04 0.04 0.04 0.04 0.03 0.03 0.02 0.01 0.01 0.02 0.03 0.03 0.02 0.02 0.01 0.01 0.02 0.02 0.02 0.02 0.03 0.03 0.03 0.04 0.04 0.04 0.04 0.05 0.05 0.03 0.01
0.01 0.01 0.01 0.01 0.02 0.02 0.03 0.03 0.03 0.03 0.03 0.03 0.02 0.01 0.01 0.01 0.02 0.02 0.03 0.03 0.03 0.02 0.02 0.02 0.02 0.02 0.02 0.02 0.03 0.03 0.03 0.03 0.03 0.03 0.04 0.05 0.06 0.03
0.01 0.01 0.01 0.01 0.02 0.02 0.03 0.02 0.02 0.02 0.03 0.03 0.02 0.01 0.01 0.01 0.02 0.02 0.03 0.03 0.03 0.02 0.02 0.02 0.02 0.02 0.02 0.02 0.02 0.02 0.02 0.01 0.02 0.02 0.03 0.04 0.06 0.05
0.01 0.01 0.01 0.01 0.02 0.03 0.03 0.03 0.02 0.02 0.01 0.01 0.01 0.02 0.02 0.02 0.02 0.04 0.04 0.04 0.03 0.02 0.03 0.03 0.02 0.02 0.02 0.02 0.02 0.02 0.01 0.01 0.00 0.01 0.03 0.04 0.04 0.04
0.01 0.01 0.01 0.02 0.02 0.03 0.03 0.03 0.02 0.01 0.01 0.01 0.01 0.01 0.01 0.02 0.03 0.03 0.03 0.03 0.03 0.03 0.03 0.04 0.04 0.02 0.02 0.02 0.02 0.02 0.02 0.01 0.01 0.01 0.02 0.03 0.03 0.03
0.01 0.01 0.02 0.03 0.03 0.04 0.03 0.02 0.01 0.01 0.01 0.01 0.01 0.01 0.01 0.02 0.02 0.02 0.01 0.02 0.02 0.02 0.03 0.04 0.04 0.02 0.02 0.02 0.02 0.02 0.03 0.02 0.01 0.02 0.03 0.04 0.04 0.03
0.01 0.01 0.01 0.02 0.02 0.02 0.02 0.02 0.02 0.02 0.02 0.01 0.01 0.01 0.01 0.01 0.01 0.01 0.02 0.02 0.02 0.02 0.03 0.04 0.04 0.03 0.02 0.01 0.02 0.02 0.03 0.04 0.04 0.03 0.02 0.03 0.05 0.05
0.03 0.01 0.01 0.02 0.02 0.02 0.03 0.02 0.01 0.01 0.01 0.01 0.01 0.01 0.01 0.01 0.01 0.02 0.02 0.03 0.04 0.04 0.04 0.04 0.04 0.03 0.02 0.02 0.01 0.02 0.03 0.04 0.06 0.05 0.04 0.04 0.04 0.05
0.01 0.01 0.02 0.03 0.03 0.03 0.02 0.01 0.00 0.00 0.00 0.00 0.01 0.01 0.01 0.01 0.02 0.02 0.02 0.03 0.03 0.02 0.02 0.03 0.03 0.02 0.02 0.02 0.01 0.02 0.03 0.04 0.04 0.04 0.03 0.05 0.07 0.06
0.01 0.01 0.01 0.03 0.03 0.02 0.01 0.00 0.00 0.00 0.00 0.01 0.01 0.01 0.01 0.02 0.02 0.02 0.02 0.02 0.02 0.01 0.01 0.02 0.03 0.03 0.03 0.02 0.02 0.02 0.03 0.04 0.05 0.04 0.03 0.04 0.05 0.05
0.01 0.00 0.00 0.02 0.03 0.02 0.01 0.00 0.00 0.00 0.00 0.00 0.01 0.01 0.01 0.02 0.02 0.02 0.02 0.02 0.01 0.01 0.01 0.02 0.02 0.03 0.03 0.03 0.03 0.03 0.03 0.04 0.05 0.05 0.05 0.04 0.03 0.03
0.02 0.01 0.01 0.01 0.03 0.02 0.01 0.01 0.01 0.01 0.01 0.01 0.01 0.01 0.01 0.01 0.03 0.03 0.02 0.02 0.01 0.01 0.01 0.01 0.02 0.03 0.02 0.02 0.02 0.03 0.03 0.04 0.05 0.05 0.04 0.03 0.03 0.03
0.02 0.02 0.01 0.02 0.02 0.02 0.01 0.01 0.01 0.01 0.01 0.01 0.01 0.01 0.01 0.01 0.02 0.03 0.02 0.02 0.01 0.01 0.01 0.01 0.01 0.02 0.02 0.02 0.02 0.03 0.03 0.04 0.04 0.04 0.04 0.03 0.03 0.03
0.02 0.02 0.02 0.02 0.01 0.01 0.01 0.01 0.01 0.01 0.02 0.02 0.01 0.01 0.01 0.01 0.01 0.03 0.03 0.02 0.02 0.02 0.01 0.01 0.01 0.02 0.03 0.02 0.02 0.02 0.03 0.03 0.03 0.03 0.03 0.03 0.02 0.02
0.02 0.02 0.03 0.03 0.02 0.01 0.01 0.01 0.02 0.02 0.02 0.02 0.02 0.02 0.02 0.02 0.02 0.02 0.03 0.02 0.02 0.02 0.02 0.02 0.02 0.03 0.03 0.03 0.03 0.03 0.02 0.03 0.03 0.03 0.03 0.02 0.01 0.01
0.02 0.02 0.04 0.03 0.02 0.02 0.02 0.02 0.02 0.02 0.02 0.02 0.02 0.02 0.02 0.03 0.03 0.03 0.04 0.04 0.03 0.03 0.03 0.03 0.03 0.03 0.04 0.05 0.05 0.04 0.04 0.03 0.03 0.03 0.02 0.02 0.01 0.01
MSLP
1012.19 1012.51 1012.93 1013.41 1013.89 1014.33 1014.67 1014.90 1015.01 1015.00 1014.89 1014.71 1014.50 1014.27 1014.06 1013.88 1013.75 1013.66 1013.63 1013.66 1013.75 1013.89 1014.07 1014.29 1014.52 1014.74 1014.96 1015.14 1015.28 1015.40 1015.49 1015.57 1015.65 1015.74 1015.83 1015.94 1016.06 1016.18
1011.95 1012.25 1012.65 1013.13 1013.62 1014.09 1014.48 1014.77 1014.93 1014.97 1014.91 1014.76 1014.56 1014.32 1014.08 1013.85 1013.65 1013.49 1013.38 1013.33 1013.34 1013.40 1013.52 1013.68 1013.86 1014.06 1014.26 1014.44 1014.59 1014.72 1014.83 1014.93 1015.02 1015.11 1015.21 1015.31 1015.42 1015.53
1011.93 1012.19 1012.55 1013.00 1013.48 1013.95 1014.35 1014.67 1014.88 1014.97 1014.96 1014.87 1014.70 1014.49 1014.26 1014.02 1013.78 1013.57 1013.39 1013.26 1013.18 1013.15 1013.17 1013.25 1013.36 1013.50 1013.65 1013.80 1013.94 1014.07 1014.18 1014.29 1014.39 1014.48 1014.58 1014.69 1014.79 1014.89
1012.16 1012.37 1012.68 1013.08 1013.51 1013.94 1014.34 1014.66 1014.89 1015.02 1015.06 1015.02 1014.91 1014.76 1014.56 1014.34 1014.11 1013.88 1013.65 1013.45 1013.29 1013.16 1013.08 1013.05 1013.07 1013.12 1013.20 1013.29 1013.40 1013.50 1013.61 1013.71 1013.81 1013.92 1014.02 1014.12 1014.22 1014.31
1012.59 1012.77 1013.02 1013.35 1013.72 1014.09 1014.44 1014.73 1014.95 1015.11 1015.19 1015.20 1015.16 1015.07 1014.93 1014.76 1014.56 1014.34 1014.10 1013.85 1013.62 1013.41 1013.22 1013.09 1012.99 1012.94 1012.93 1012.95 1013.00 1013.07 1013.15 1013.24 1013.34 1013.44 1013.55 1013.65 1013.74 1013.82
1013.16 1013.30 1013.51 1013.76 1014.05 1014.35 1014.62 1014.86 1015.06 1015.20 1015.30 1015.36 1015.37 1015.35 1015.29 1015.18 1015.04 1014.85 1014.62 1014.36 1014.09 1013.81 1013.55 1013.31 1013.11 1012.96 1012.85 1012.79 1012.77 1012.79 1012.84 1012.91 1012.99 1013.09 1013.20 1013.30 1013.39 1013.46
1013.74 1013.86 1014.03 1014.23 1014.44 1014.65 1014.85 1015.02 1015.16 1015.27 1015.36 1015.44 1015.49 1015.53 1015.54 1015.51 1015.44 1015.30 1015.12 1014.87 1014.59 1014.28 1013.96 1013.65 1013.37 1013.13 1012.94 1012.80 1012.72 1012.68 1012.68 1012.73 1012.79 1012.88 1012.98 1013.08 1013.16 1013.22
1014.21 1014.34 1014.48 1014.64 1014.79 1014.92 1015.04 1015.13 1015.21 1015.27 1015.34 1015.41 1015.49 1015.58 1015.65 1015.69 1015.69 1015.62 1015.49 1015.30 1015.03 1014.73 1014.39 1014.05 1013.72 1013.42 1013.16 1012.96 1012.82 1012.73 1012.70 1012.70 1012.75 1012.82 1012.90 1012.99 1013.05 1013.09
1014.49 1014.64 1014.78 1014.92 1015.03 1015.11 1015.16 1015.18 1015.20 1015.21 1015.24 1015.29 1015.38 1015.49 1015.60 1015.70 1015.76 1015.77 1015.71 1015.58 1015.37 1015.09 1014.78 1014.43 1014.09 1013.77 1013.48 1013.24 1013.06 1012.93 1012.86 1012.83 1012.85 1012.89 1012.95 1013.02 1013.07 1013.09
1014.52 1014.71 1014.88 1015.02 1015.12 1015.18 1015.19 1015.17 1015.13 1015.09 1015.08 1015.11 1015.18 1015.29 1015.43 1015.57 1015.69 1015.76 1015.77 1015.71 1015.57 1015.35 1015.09 1014.78 1014.47 1014.15 1013.86 1013.61 1013.41 1013.25 1013.15 1013.09 1013.07 1013.09 1013.12 1013.16 1013.19 1013.19
1014.34 1014.58 1014.78 1014.95 1015.07 1015.13 1015.13 1015.08 1015.01 1014.95 1014.90 1014.90 1014.96 1015.06 1015.20 1015.36 1015.52 1015.64 1015.71 1015.72 1015.65 1015.51 1015.31 1015.07 1014.81 1014.53 1014.27 1014.03 1013.82 1013.65 1013.53 1013.44 1013.39 1013.38 1013.38 1013.39 1013.39 1013.37
1013.99 1014.27 1014.53 1014.74 1014.89 1014.97 1014.98 1014.94 1014.87 1014.79 1014.73 1014.71 1014.74 1014.83 1014.97 1015.14 1015.31 1015.46 1015.58 1015.65 1015.64 1015.58 1015.46 1015.29 1015.09 1014.88 1014.66 1014.44 1014.25 1014.08 1013.94 1013.83 1013.76 1013.71 1013.69 1013.67 1013.66 1013.62
1013.53 1013.85 1014.14 1014.40 1014.60 1014.72 1014.77 1014.75 1014.70 1014.62 1014.56 1014.53 1014.55 1014.63 1014.75 1014.91 1015.09 1015.26 1015.41 1015.52 1015.58 1015.58 1015.53 1015.44 1015.31 1015.15 1014.98 1014.81 1014.64 1014.47 1014.33 1014.21 1014.11 1014.04 1014.00 1013.97 1013.94 1013.90
1013.01 1013.35 1013.68 1013.97 1014.21 1014.37 1014.46 1014.49 1014.46 1014.41 1014.37 1014.34 1014.36 1014.43 1014.54 1014.70 1014.87 1015.05 1015.21 1015.35 1015.45 1015.51 1015.52 1015.49 1015.43 1015.34 1015.22 1015.08 1014.94 1014.79 1014.65 1014.52 1014.41 1014.33 1014.27 1014.23 1014.21 1014.17
1012.45 1012.79 1013.14 1013.45 1013.72 1013.91 1014.04 1014.10 1014.12 1014.10 1014.08 1014.08 1014.11 1014.19 1014.30 1014.45 1014.62 1014.80 1014.97 1015.13 1015.26 1015.36 1015.42 1015.45 1015.44 1015.40 1015.33 1015.24 1015.12 1015.00 1014.86 1014.74 1014.63 1014.54 1014.48 1014.44 1014.43 1014.41
1011.85 1012.18 1012.51 1012.83 1013.10 1013.32 1013.47 1013.56 1013.61 1013.64 1013.66 1013.69 1013.74 1013.84 1013.96 1014.12 1014.29 1014.48 1014.66 1014.83 1014.98 1015.11 1015.22 1015.29 1015.33 1015.34 1015.32 1015.26 1015.18 1015.08 1014.96 1014.85 1014.74 1014.66 1014.61 1014.59 1014.59 1014.61
1011.19 1011.49 1011.79 1012.08 1012.34 1012.55 1012.71 1012.82 1012.90 1012.97 1013.03 1013.10 1013.20 1013.32 1013.47 1013.65 1013.84 1014.04 1014.24 1014.43 1014.61 1014.77 1014.90 1015.02 1015.10 1015.16 1015.18 1015.17 1015.12 1015.05 1014.96 1014.86 1014.78 1014.72 1014.68 1014.68 1014.70 1014.74
1010.44 1010.69 1010.95 1011.20 1011.42 1011.60 1011.75 1011.87 1011.98 1012.07 1012.18 1012.30 1012.44 1012.61 1012.80 1013.01 1013.23 1013.46 1013.68 1013.90 1014.10 1014.30 1014.48 1014.63 1014.77 1014.87 1014.94 1014.97 1014.97 1014.94 1014.89 1014.83 1014.77 1014.73 1014.72 1014.73 1014.78 1014.84
1009.59 1009.79 1009.99 1010.17 1010.34 1010.49 1010.62 1010.73 1010.85 1010.98 1011.12 1011.29 1011.49 1011.71 1011.95 1012.20 1012.46 1012.73 1012.98 1013.24 1013.48 1013.72 1013.94 1014.15 1014.34 1014.50 1014.63 1014.72 1014.78 1014.80 1014.79 1014.77 1014.75 1014.74 1014.75 1014.79 1014.85 1014.92
1008.65 1008.78 1008.91 1009.03 1009.14 1009.25 1009.34 1009.45 1009.58 1009.73 1009.91 1010.13 1010.37 1010.65 1010.94 1011.24 1011.54 1011.85 1012.15 1012.44 1012.73 1013.02 1013.30 1013.57 1013.82 1014.05 1014.25 1014.41 1014.54 1014.63 1014.69 1014.72 1014.75 1014.78 1014.81 1014.87 1014.93 1015.01
1007.64 1007.70 1007.76 1007.81 1007.86 1007.92 1007.99 1008.08 1008.22 1008.39 1008.60 1008.86 1009.15 1009.47 1009.80 1010.14 1010.49 1010.84 1011.18 1011.52 1011.86 1012.21 1012.55 1012.89 1013.22 1013.53 1013.81 1014.06 1014.26 1014.43 1014.56 1014.66 1014.74 1014.81 1014.88 1014.95 1015.03 1015.10
1006.59 1006.57 1006.56 1006.54 1006.54 1006.56 1006.61 1006.70 1006.84 1007.03 1007.27 1007.56 1007.88 1008.23 1008.59 1008.97 1009.34 1009.72 1010.10 1010.49 1010.88 1011.29 1011.70 1012.11 1012.52 1012.91 1013.28 1013.62 1013.92 1014.17 1014.38 1014.54 1014.69 1014.80 1014.91 1015.01 1015.10 1015.18
1005.54 1005.45 1005.37 1005.30 1005.25 1005.24 1005.28 1005.36 1005.51 1005.72 1005.97 1006.28 1006.61 1006.98 1007.36 1007.74 1008.14 1008.53 1008.94 1009.36 1009.80 1010.26 1010.73 1011.22 1011.71 1012.19 1012.65 1013.07 1013.45 1013.79 1014.07 1014.31 1014.52 1014.69 1014.84 1014.97 1015.09 1015.19
Thickness
5727 5724 5722 5721 5720 5718 5716 5712 5704 5696 5696 5700 5702 5706 5707 5706 5706 5705 5704 5704 5704 5703 5703 5703 5702 5702 5702 5701 5701 5700 5700 5699 5698 5697 5696 5696 5695 5694
5722 5719 5717 5716 5714 5713 5712 5710 5706 5700 5694 5696 5698 5700 5702 5702 5701 5701 5700 5700 5699 5698 5698 5698 5697 5697 5697 5696 5696 5695 5695 5694 5693 5692 5691 5690 5690 5689
5717 5715 5712 5710 5708 5707 5706 5705 5702 5698 5692 5692 5694 5696 5695 5695 5696 5696 5695 5695 5694 5694 5693 5693 5692 5692 5692 5691 5690 5690 5689 5688 5687 5687 5686 5685 5684 5684
5712 5709 5707 5706 5703 5701 5700 5698 5697 5695 5690 5687 5687 5688 5688 5689 5689 5689 5690 5689 5689 5689 5688 5687 5687 5686 5686 5685 5685 5684 5684 5683 5682 5681 5681 5680 5679 5678
5707 5704 5702 5699 5696 5695 5693 5692 5691 5690 5687 5683 5681 5681 5682 5682 5682 5682 5683 5682 5683 5683 5682 5682 5681 5681 5681 5680 5679 5679 5678 5678 5677 5676 5675 5674 5673 5672
5703 5700 5698 5695 5692 5690 5688 5686 5685 5682 5680 5677 5674 5674 5674 5675 5674 5672 5672 5673 5675 5676 5676 5676 5675 5675 5675 5674 5674 5673 5672 5672 5671 5670 5669 5668 5667 5666
5697 5695 5694 5692 5690 5688 5685 5682 5679 5676 5673 5670 5668 5667 5666 5666 5666 5666 5665 5665 5666 5668 5667 5668 5668 5667 5667 5667 5667 5667 5666 5665 5665 5664 5663 5662 5661 5660
5691 5689 5688 5687 5685 5683 5682 5679 5676 5672 5668 5665 5663 5661 5661 5661 5661 5661 5658 5656 5655 5660 5659 5659 5660 5660 5661 5661 5661 5661 5660 5659 5658 5658 5657 5656 5655 5654
5686 5684 5683 5682 5679 5676 5675 5674 5672 5670 5668 5663 5659 5658 5657 5657 5655 5654 5652 5651 5651 5653 5652 5651 5653 5653 5655 5655 5655 5654 5654 5653 5652 5651 5651 5650 5649 5648
5682 5679 5676 5674 5673 5671 5668 5666 5665 5664 5662 5660 5658 5656 5656 5655 5652 5650 5648 5646 5646 5647 5646 5643 5645 5646 5649 5649 5649 5648 5647 5647 5646 5645 5644 5643 5642 5642
5676 5674 5672 5669 5667 5665 5662 5658 5657 5656 5657 5656 5654 5653 5651 5650 5649 5645 5641 5637 5636 5638 5639 5637 5638 5638 5640 5641 5642 5641 5641 5641 5640 5639 5638 5637 5636 5635
5670 5668 5667 5665 5662 5659 5656 5653 5650 5649 5649 5648 5647 5646 5645 5645 5644 5641 5637 5633 5630 5630 5633 5631 5630 5629 5629 5633 5634 5634 5634 5634 5634 5633 5632 5631 5629 5628
5663 5662 5661 5660 5658 5655 5652 5649 5647 5646 5643 5641 5640 5639 5638 5638 5637 5636 5634 5631 5627 5625 5628 5626 5624 5622 5620 5622 5625 5626 5627 5626 5626 5626 5625 5625 5624 5622
5659 5658 5657 5655 5653 5650 5647 5646 5643 5641 5638 5635 5633 5632 5631 5630 5631 5630 5629 5628 5627 5625 5625 5622 5619 5617 5615 5614 5615 5618 5619 5619 5619 5619 5619 5619 5618 5617
5655 5654 5652 5650 5647 5645 5643 5640 5637 5634 5631 5628 5627 5627 5626 5626 5625 5624 5623 5622 5621 5621 5620 5618 5616 5613 5611 5609 5608 5610 5611 5612 5613 5613 5612 5611 5611 5610
5648 5647 5645 5643 5641 5639 5637 5634 5632 5629 5626 5624 5622 5621 5620 5619 5618 5617 5615 5614 5612 5612 5614 5613 5611 5608 5606 5605 5603 5604 5605 5605 5607 5606 5605 5605 5605 5605
5641 5638 5635 5633 5631 5630 5628 5627 5625 5623 5620 5619 5617 5615 5613 5612 5611 5610 5608 5606 5604 5604 5604 5605 5605 5604 5602 5600 5599 5599 5599 5600 5600 5600 5598 5598 5598 5599
5632 5629 5627 5625 5624 5623 5622 5620 5618 5617 5615 5613 5611 5609 5608 5606 5605 5604 5602 5600 5599 5598 5598 5598 5597 5595 5594 5595 5596 5595 5595 5594 5595 5594 5593 5592 5592 5594
5624 5623 5622 5620 5618 5617 5616 5614 5613 5612 5610 5608 5606 5605 5603 5601 5600 5598 5597 5595 5594 5594 5594 5593 5591 5588 5585 5586 5590 5591 5590 5589 5589 5588 5588 5588 5588 5589
5618 5617 5616 5615 5614 5612 5611 5609 5608 5606 5605 5603 5602 5600 5599 5597 5595 5593 5592 5591 5590 5589 5588 5588 5587 5585 5584 5584 5584 5585 5587 5585 5584 5583 5583 5583 5583 5584
5612 5612 5611 5610 5609 5608 5606 5605 5603 5601 5600 5599 5597 5596 5594 5592 5590 5589 5588 5587 5585 5583 5583 5583 5585 5585 5582 5579 5577 5579 5581 5582 5583 5581 5580 5578 5576 5576
5607 5607 5607 5606 5605 5604 5602 5601 5599 5597 5596 5594 5593 5591 5589 5588 5586 5585 5583 5582 5581 5579 5579 5580 5580 5578 5576 5574 5573 5573 5574 5576 5577 5578 5578 5577 5574 5572
5601 5602 5601 5601 5600 5599 5598 5596 5594 5593 5591 5590 5589 5587 5585 5583 5582 5581 5579 5578 5577 5576 5575 5574 5573 5572 5571 5570 5569 5569 5570 5570 5570 5570 5571 5572 5572 5573